TimeCDT,TemperatureF,Dew PointF,Humidity,Sea Level PressureIn,VisibilityMPH,Wind Direction,Wind SpeedMPH,Gust SpeedMPH,PrecipitationIn,Events,Conditions,WindDirDegrees,DateUTC
12:53 AM,54.0,45.0,72,30.28,10.0,South,9.2,-,0.00,,Overcast,170,2013-05-25 05:53:00
1:53 AM,53.1,46.9,80,30.32,6.0,SSE,6.9,-,0.10,Rain,Rain,150,2013-05-25 06:53:00
2:53 AM,51.1,48.0,89,30.28,9.0,East,13.8,-,0.12,Rain,Light Rain,100,2013-05-25 07:53:00
3:53 AM,50.0,48.9,96,30.31,8.0,SE,8.1,-,0.00,Rain,Light Rain,130,2013-05-25 08:53:00
4:53 AM,50.0,48.0,93,30.32,10.0,South,6.9,-,0.01,,Overcast,180,2013-05-25 09:53:00
5:53 AM,48.9,46.0,90,30.34,10.0,SE,8.1,-,0.00,,Overcast,140,2013-05-25 10:53:00
6:53 AM,48.9,46.9,93,30.34,9.0,ESE,10.4,-,N/A,,Overcast,110,2013-05-25 11:53:00
7:53 AM,48.0,44.1,86,30.35,10.0,ESE,11.5,18.4,N/A,,Overcast,120,2013-05-25 12:53:00
8:53 AM,48.0,42.1,80,30.37,10.0,SSE,4.6,-,N/A,,Overcast,160,2013-05-25 13:53:00
9:53 AM,48.0,43.0,83,30.37,5.0,SSE,9.2,-,0.02,Rain,Rain,150,2013-05-25 14:53:00
10:53 AM,46.9,43.0,86,30.36,8.0,SE,15.0,-,0.08,Rain,Light Rain,140,2013-05-25 15:53:00
11:53 AM,48.0,44.1,86,30.30,10.0,ESE,15.0,20.7,0.01,,Overcast,120,2013-05-25 16:53:00
12:53 PM,48.0,44.1,86,30.33,8.0,South,16.1,-,0.00,Rain,Light Rain,190,2013-05-25 17:53:00
1:53 PM,46.9,44.1,90,30.33,8.0,SSE,10.4,-,0.02,Rain,Light Rain,160,2013-05-25 18:53:00
2:53 PM,48.0,46.9,96,30.34,8.0,SSE,10.4,-,0.05,Rain,Light Rain,150,2013-05-25 19:53:00
3:53 PM,48.0,46.0,93,30.33,7.0,East,8.1,-,0.05,Rain,Light Rain,90,2013-05-25 20:53:00
4:53 PM,50.0,46.9,89,30.32,7.0,East,9.2,-,0.01,,Overcast,100,2013-05-25 21:53:00
5:53 PM,50.0,46.9,89,30.32,10.0,East,6.9,-,N/A,,Overcast,100,2013-05-25 22:53:00
6:53 PM,50.0,45.0,83,30.29,10.0,ESE,11.5,18.4,N/A,,Overcast,120,2013-05-25 23:53:00
7:53 PM,50.0,45.0,83,30.30,10.0,ESE,6.9,-,N/A,,Overcast,110,2013-05-26 00:53:00
8:53 PM,50.0,46.0,86,30.29,10.0,East,6.9,-,N/A,,Overcast,100,2013-05-26 01:53:00
9:53 PM,50.0,46.0,86,30.29,10.0,East,9.2,-,N/A,,Overcast,90,2013-05-26 02:53:00
10:53 PM,48.0,44.1,86,30.30,10.0,SE,5.8,-,N/A,,Scattered Clouds,130,2013-05-26 03:53:00
11:53 PM,46.0,43.0,89,30.30,9.0,East,3.5,-,N/A,,Clear,80,2013-05-26 04:53:00